Create Custom Reports and Graphics: Custom Report

Anza Map

Map

10 Minute Data

Latest Observation

23 Stations

10 Minute Data | America/Los_Angeles
as of 9/2/26 9:28 AM PDT
Station Date Time Temp (°F) Dew Pt (°F) RH (%) Wind Spd (mph) Wind Dir (°) Wind Gust (mph) Wind Gst Dir (°) Daily Max Temp (°F) Daily Min Temp (°F) Daily Max Wind (mph) Max Wind Dir (°)
Thomas Mountain 9/2/26 0920 67.1   0.7 19.5   9.0 16   7 8.1 W | 261 14.4 WSW | 246 67.6 59.5 21.5 W | 277
Red Mountain 9/2/26 0820 63.5   1.8 20.1   2.2 19   1 2.7 WSW | 237 3.4 WSW | 238 65.2 59.3 11.8 W | 264
Coyote Canyon 9/2/26 0920 70.3   1.8 22.0   4.4 16   2 18.4 WNW | 294 25.4 WNW | 293 70.6 57.6 33.5 WNW | 295
Pinyon 9/2/26 0920 73.1   0.5 20.0   8.2 13   6 18.8 NNW | 332 26.7 NNW | 340 73.7 62.3 35.1 NW | 326
Aguanga Barbara Trail 9/2/26 0920 71.4   0.9 23.5   9.5 16   7 2.8 WSW | 252 5.6 SW | 224 71.6 58.3 10.5 NE | 47
SCE Idyllwild Ridge 9/2/26 0920 64.1   0.4 15.9   26.9 15   31 1.4 NE | 55 3.9 NNW | 346 64.8 55.1 5.0 E | 96
SCE Idyllwild Hwy 9/2/26 0920 75.0   0.9 28.7   10.4 18   8 0.6 E | 84 2.0 ESE | 113 75.4 54.0 10.1 SSE | 162
SCE Apple Canyon 9/2/26 0920 70.1   1.4 20.9   8.2 15   5 5.5 SSW | 206 9.2 SSW | 192 70.8 57.1 12.1 SW | 226
SCE Keen Ridge 9/2/26 0920 66.3   0.4 22.4   1.7 19   1 9.1 WNW | 300 14.3 NW | 312 66.9 56.0 14.3 NNW | 334
SCE Aguanga 9/2/26 0920 72.6   2.5 28.5   9.8 19   7 3.3 SSW | 204 6.4 W | 259 72.9 60.1 6.4 W | 259
SCE Butterfield Valley 9/2/26 0920 70.8   4.3 39.2   3.4 32   0 0.8 NW | 307 3.1 NNW | 330 72.0 47.4 6.7 NW | 323
SCE Anza Rd 9/2/26 0920 69.3   2.2 50.8   0.7 52   5 1.8 NW | 312 5.6 NNW | 341 70.0 49.8 6.1 E | 93
SCE Wilson Valley Rd 9/2/26 0920 74.0   0.8 28.1   13.3 18   12 0.3 WNW | 296 1.9 N | 1 75.0 61.7 7.4 ESE | 119
SCE Weber Valley 9/2/26 0920 73.1   1.3 26.4   12.9 17   11 2.9 SSW | 208 7.2 WSW | 252 73.6 58.9 7.7 NE | 37
SCE Red Mountain Rd 9/2/26 0920 71.6   0.6 26.4   10.0 18   9 4.0 S | 184 7.1 SSW | 198 72.0 63.9 8.2 SSE | 157
SCE Brown Canyon 9/2/26 0920 73.4   0.6 31.6   15.7 21   17 3.9 NW | 317 6.5 WNW | 284 73.7 54.2 7.3 ESE | 102
SCE Cedar Ave 9/2/26 0920 70.4   1.8 36.4   5.4 29   5 1.6 W | 269 3.9 NW | 319 71.0 51.7 4.7 ESE | 116
SCE Anderson Dr 9/2/26 0920 71.2   3.2 37.0   3.2 29   0 2.4 S | 169 5.0 SW | 230 72.2 57.9 5.0 SW | 230
SCE Pachea Trail 9/2/26 0920 68.7   3.4 41.3   7.3 37   7 2.7 NE | 36 5.4 N | 11 69.0 62.9 6.9 ENE | 78
SCE Painted Canyon Rd 9/2/26 0920 86.5   1.1 36.7   3.2 17   3 3.3 E | 87 6.2 E | 82 87.2 72.2 6.6 W | 279
Oak Grove 9/2/26 0920 75.4   0.6 27.2   5.5 17   4 2.2 S | 169 5.3 SE | 144 75.7 48.3 8.8 ESE | 109
Chihuahua Valley 9/2/26 0920 67.4   3.7 25.6   3.2 20   0 5.5 SSE | 162 9.6 SE | 146 67.7 51.9 9.6 SE | 146
Sunshine Summit 9/2/26 0920 70.1   1.9 27.9   6.4 21   4 4.8 E | 85 7.8 ESE | 106 70.5 52.8 7.8 ESE | 106
Max     86.5 50.8 52 18.8 - 26.7 - 87.2 72.2 35.1 -
Avg     71.1 28.5 22 4.6 - 8.1 - - - - -
Min     63.5 15.9 13 0.3 - 1.9 - 64.8 47.4 4.7 -